IRIDIUM 64 [P]

Last updated on March 22, 2019, 3:12 a.m. UTC

1 25287U 98021C   19080.85991452  .02484534 -15142-5  11932-2 0  9992
2 25287  86.4289 315.0216 0389417 166.7527 194.4331 15.47371490 97289

Satellite is not in orbit.